South Haven, MI

10:42 PM EST on February 21, 2018 (GMT -0500)
South Haven

Weather History for KLWA - May, 2013

Change the Weather History Date:

Friday, May 31, 2013

  Actual Average (KBEH) Record (KBEH)
Temperature  
Mean Temperature 71 °F -  
Max Temperature 77 °F 73 °F 89 °F (1988)
Min Temperature 65 °F 50 °F 31 °F (1990)
Cooling Degree Days 6    
Growing Degree Days 21 (Base 50)    
Moisture  
Dew Point 64 °F    
Average Humidity 76    
Maximum Humidity 92    
Minimum Humidity 62    
Precipitation  
Precipitation 0.00 in - - ()
Sea Level Pressure  
Sea Level Pressure 29.87 in    
Wind  
Wind Speed 9 mph (South)    
Max Wind Speed 15 mph    
Max Gust Speed 24 mph    
Visibility 10 miles    
Events Rain    
Averages and records for this station are not official NWS values.
T = Trace of Precipitation, MM = Missing Value Source: NWS Daily Summary

Daily Weather History Graph

Daily Weather History Graph

Search for Another Location

Airport or City:

Trip Planner

Search our weather history database for the weather conditions in past years. The results will help you decide how hot, cold, wet, or windy it might be!

Date:

Astronomy

May. 31, 2013 Rise Set
Actual Time 6:11 AM EDT 9:14 PM EDT
Civil Twilight 5:37 AM EDT 9:48 PM EDT
Nautical Twilight 4:54 AM EDT 10:32 PM EDT
Astronomical Twilight 4:03 AM EDT 11:23 PM EDT
Moon 1:43 AM EDT (5/31) 1:31 PM EDT (5/31)
Length of Visible Light 16h 11m
Length of Day
15h 03m
Waning Gibbous, 51% of the Moon is Illuminated
May 31
Waning Gibbous
May 31
Last Quarter
Jun 8
New
Jun 16
First Quarter
Jun 23
Full

Hourly Weather History & Observations

Time (EDT) Temp. Dew Point Humidity Pressure Visibility Wind Dir Wind Speed Gust Speed Precip Events Conditions
12:15 AM 77.0 °F 64.6 °F 65% 29.92 in 10.0 mi South 12.7 mph 16.1 mph N/A   Scattered Clouds
12:35 AM 76.3 °F 64.9 °F 68% 29.92 in 10.0 mi South 10.4 mph - N/A   Clear
12:55 AM 76.1 °F 64.9 °F 68% 29.91 in 10.0 mi South 8.1 mph - N/A   Clear
1:15 AM 76.1 °F 65.1 °F 69% 29.91 in 10.0 mi South 9.2 mph 17.3 mph N/A   Clear
1:35 AM 75.7 °F 64.9 °F 69% 29.90 in 10.0 mi SSE 6.9 mph - N/A   Scattered Clouds
1:55 AM 75.4 °F 65.3 °F 71% 29.90 in 10.0 mi South 10.4 mph 17.3 mph N/A   Mostly Cloudy
2:15 AM 68.7 °F 61.3 °F 77% 29.94 in 10.0 mi SW 12.7 mph 24.2 mph N/A Rain Light Rain
2:35 AM 65.8 °F 63.0 °F 90% 29.92 in 5.0 mi SSW 6.9 mph - N/A Rain Light Rain
2:55 AM 65.8 °F 63.1 °F 91% 29.92 in 10.0 mi SSW 4.6 mph - N/A Rain Light Rain
3:15 AM 65.8 °F 63.5 °F 92% 29.93 in 10.0 mi South 11.5 mph - N/A   Overcast
3:36 AM 66.7 °F 63.9 °F 90% 29.91 in 10.0 mi South 5.8 mph - N/A Rain Light Rain
3:55 AM 66.4 °F 64.0 °F 92% 29.90 in 10.0 mi South 5.8 mph - N/A Rain Light Rain
4:15 AM 66.4 °F 63.7 °F 91% 29.89 in 10.0 mi SSE 3.5 mph - N/A   Clear
4:36 AM 66.2 °F 63.7 °F 92% 29.90 in 10.0 mi SSE 3.5 mph - N/A   Scattered Clouds
4:55 AM 66.2 °F 63.1 °F 90% 29.88 in 10.0 mi SSE 4.6 mph - N/A   Scattered Clouds
5:15 AM 65.8 °F 63.1 °F 91% 29.87 in 10.0 mi SSE 5.8 mph - N/A   Mostly Cloudy
5:36 AM 66.0 °F 63.1 °F 90% 29.87 in 10.0 mi SSE 3.5 mph - N/A   Mostly Cloudy
5:55 AM 65.5 °F 63.0 °F 92% 29.85 in 10.0 mi SSE 4.6 mph - N/A   Scattered Clouds
6:15 AM 65.3 °F 63.0 °F 92% 29.86 in 10.0 mi South 8.1 mph - N/A   Clear
6:35 AM 66.4 °F 63.5 °F 90% 29.86 in 10.0 mi South 8.1 mph - N/A   Clear
6:55 AM 67.3 °F 63.9 °F 89% 29.86 in 10.0 mi South 8.1 mph - N/A   Scattered Clouds
7:15 AM 68.0 °F 64.4 °F 88% 29.86 in 10.0 mi South 8.1 mph - N/A   Mostly Cloudy
7:35 AM 68.4 °F 64.6 °F 88% 29.89 in 10.0 mi SSW 9.2 mph - N/A   Mostly Cloudy
7:55 AM 69.1 °F 64.8 °F 86% 29.89 in 10.0 mi South 10.4 mph 17.3 mph N/A   Scattered Clouds
8:15 AM 69.3 °F 65.1 °F 87% 29.89 in 10.0 mi South 10.4 mph 18.4 mph N/A   Scattered Clouds
8:35 AM 69.6 °F 64.8 °F 84% 29.89 in 10.0 mi South 10.4 mph - N/A   Scattered Clouds
8:56 AM 70.9 °F 64.9 °F 81% 29.89 in 10.0 mi South 11.5 mph 16.1 mph N/A   Clear
9:15 AM 70.9 °F 64.2 °F 79% 29.89 in 10.0 mi South 11.5 mph 19.6 mph N/A   Clear
9:35 AM 71.6 °F 63.5 °F 76% 29.90 in 10.0 mi South 9.2 mph 20.7 mph N/A   Clear
9:56 AM 72.5 °F 62.8 °F 71% 29.89 in 10.0 mi SSW 10.4 mph 17.3 mph N/A   Clear
10:15 AM 72.9 °F 61.9 °F 68% 29.89 in 10.0 mi South 10.4 mph - N/A   Clear
10:35 AM 72.9 °F 60.8 °F 66% 29.89 in 10.0 mi SSW 10.4 mph 16.1 mph N/A   Clear
10:55 AM 73.6 °F 61.5 °F 66% 29.89 in 10.0 mi South 9.2 mph 16.1 mph N/A   Clear
11:15 AM 73.8 °F 61.3 °F 65% 29.90 in 10.0 mi SSW 11.5 mph 19.6 mph N/A   Clear
11:35 AM 74.8 °F 62.1 °F 64% 29.90 in 10.0 mi South 10.4 mph 19.6 mph N/A   Mostly Cloudy
11:55 AM 75.6 °F 61.9 °F 62% 29.90 in 10.0 mi SSW 10.4 mph 17.3 mph N/A   Mostly Cloudy
12:15 PM 74.7 °F 62.4 °F 66% 29.91 in 10.0 mi South 10.4 mph - N/A   Scattered Clouds
12:35 PM 73.6 °F 62.6 °F 68% 29.92 in 10.0 mi South 8.1 mph - N/A   Mostly Cloudy
12:55 PM 73.9 °F 63.1 °F 69% 29.92 in 10.0 mi South 8.1 mph 16.1 mph N/A   Mostly Cloudy
1:15 PM 75.7 °F 63.5 °F 66% 29.91 in 10.0 mi SSW 13.8 mph 19.6 mph N/A   Mostly Cloudy
1:36 PM 75.4 °F 64.0 °F 68% 29.91 in 10.0 mi SW 8.1 mph 20.7 mph N/A   Overcast
1:55 PM 75.2 °F 64.8 °F 70% 29.90 in 10.0 mi SSW 8.1 mph 16.1 mph N/A   Overcast
2:15 PM 75.4 °F 64.2 °F 68% 29.89 in 10.0 mi South 13.8 mph 18.4 mph N/A   Overcast
2:35 PM 75.6 °F 63.3 °F 66% 29.88 in 10.0 mi South 13.8 mph 19.6 mph N/A   Mostly Cloudy
2:55 PM 76.1 °F 63.7 °F 65% 29.87 in 10.0 mi South 15.0 mph 18.4 mph N/A   Scattered Clouds
3:16 PM 75.7 °F 64.0 °F 67% 29.86 in 10.0 mi South 9.2 mph 16.1 mph N/A   Clear
3:35 PM 75.9 °F 63.7 °F 66% 29.86 in 10.0 mi South 11.5 mph 20.7 mph N/A   Clear
3:55 PM 75.6 °F 63.7 °F 66% 29.85 in 10.0 mi South 15.0 mph 19.6 mph N/A   Clear
4:16 PM 76.1 °F 64.2 °F 67% 29.85 in 10.0 mi SSW 11.5 mph 19.6 mph N/A   Scattered Clouds
4:35 PM 75.6 °F 64.0 °F 67% 29.85 in 10.0 mi SSW 12.7 mph 23.0 mph N/A   Scattered Clouds
4:55 PM 75.6 °F 64.0 °F 67% 29.85 in 10.0 mi South 11.5 mph 19.6 mph N/A   Scattered Clouds
5:16 PM 75.6 °F 64.2 °F 68% 29.85 in 10.0 mi South 10.4 mph 18.4 mph N/A   Clear
5:35 PM 75.6 °F 64.8 °F 69% 29.85 in 10.0 mi SSW 8.1 mph 17.3 mph N/A   Clear
5:55 PM 76.1 °F 64.8 °F 68% 29.84 in 10.0 mi SSW 8.1 mph - N/A   Scattered Clouds
6:16 PM 75.4 °F 64.9 °F 70% 29.84 in 10.0 mi South 10.4 mph 16.1 mph N/A   Scattered Clouds
6:35 PM 75.2 °F 65.3 °F 71% 29.84 in 10.0 mi South 5.8 mph - N/A   Clear
6:55 PM 75.2 °F 65.3 °F 71% 29.82 in 10.0 mi South 6.9 mph - N/A   Clear
7:16 PM 75.2 °F 65.3 °F 71% 29.82 in 10.0 mi South 5.8 mph - N/A   Clear
7:35 PM 74.8 °F 64.9 °F 71% 29.81 in 10.0 mi SSE 4.6 mph - N/A   Clear
7:55 PM 74.3 °F 64.6 °F 72% 29.79 in 10.0 mi SE 5.8 mph - N/A   Clear
8:15 PM 73.4 °F 64.9 °F 75% 29.82 in 10.0 mi South 4.6 mph - N/A   Clear
8:35 PM 73.4 °F 64.4 °F 73% 29.81 in 10.0 mi South 4.6 mph - N/A   Clear
8:55 PM 72.7 °F 64.8 °F 76% 29.81 in 10.0 mi SSE 3.5 mph - N/A   Clear
9:15 PM 72.5 °F 65.3 °F 78% 29.80 in 10.0 mi SSE 5.8 mph - N/A   Clear
9:35 PM 72.5 °F 65.5 °F 79% 29.80 in 10.0 mi SE 4.6 mph - N/A   Clear
9:55 PM 72.5 °F 65.7 °F 79% 29.80 in 10.0 mi SE 3.5 mph - N/A   Clear
10:15 PM 72.0 °F 65.8 °F 81% 29.80 in 10.0 mi SE 4.6 mph - N/A   Clear
10:35 PM 71.8 °F 66.0 °F 82% 29.81 in 10.0 mi SE 3.5 mph - N/A   Clear
10:55 PM 71.8 °F 66.2 °F 83% 29.82 in 10.0 mi SSE 3.5 mph - N/A   Scattered Clouds
11:15 PM 71.8 °F 66.2 °F 83% 29.82 in 10.0 mi South 5.8 mph - N/A   Mostly Cloudy
11:35 PM 72.0 °F 65.7 °F 80% 29.82 in 10.0 mi South 6.9 mph - N/A   Overcast
11:55 PM 72.0 °F 64.6 °F 77% 29.81 in 10.0 mi South 5.8 mph - N/A   Overcast